Weather History for CYYZ - November, 2012

Change the Weather History Date:

Thursday, November 15, 2012

  Actual Average Record
Temperature  
Mean Temperature 37 °F -  
Max Temperature 42 °F 39 °F 60 °F (2001)
Min Temperature 32 °F 25 °F 17 °F (1996)
Degree Days  
Heating Degree Days 28    
Moisture  
Dew Point 29 °F    
Average Humidity 68    
Maximum Humidity 81    
Minimum Humidity 54    
Precipitation  
Precipitation 0.00 in 0.09 in - ()
Sea Level Pressure  
Sea Level Pressure 30.42 in    
Wind  
Wind Speed 4 mph ()    
Max Wind Speed 8 mph    
Max Gust Speed -    
Visibility 15.0 miles    
Events      
Averages and records for this station are not official NWS values.
T = Trace of Precipitation, MM = Missing Value Source: Averaged Metar Reports

Daily Weather History Graph

Daily Weather History Graph

Search for Another Location

Airport or City:

Trip Planner

Search our weather history database for the weather conditions in past years. The results will help you decide how hot, cold, wet, or windy it might be!

Date:

Astronomy

Nov. 15, 2012 Rise Set
Actual Time 7:13 AM EST 4:52 PM EST
Civil Twilight 6:42 AM EST 5:23 PM EST
Nautical Twilight 6:07 AM EST 5:58 PM EST
Astronomical Twilight 5:33 AM EST 6:32 PM EST
Moon 9:09 AM EST (11/15) 6:40 PM EST (11/15)
Length of Visible Light 10h 41m
Length of Day
9h 39m
Waxing Crescent, 5% of the Moon is Illuminated
Nov 15
Waxing Crescent
Nov 20
First Quarter
Nov 28
Full
Dec 6
Last Quarter
Dec 13
New

Hourly Weather History & Observations

Time (EST) Temp. Windchill Dew Point Humidity Pressure Visibility Wind Dir Wind Speed Gust Speed Precip Events Conditions
12:00 AM 39.2 °F 35.0 °F 28.4 °F 65% 30.49 in 15.0 mi East 5.8 mph - N/A   Mostly Cloudy
1:00 AM 38 °F - 27 °F 54% 30.49 in 15 mi SE 3.5 mph - -   Mostly Cloudy
1:00 AM 39.2 °F 35.0 °F 26.6 °F 61% 30.49 in 15.0 mi SE 5.8 mph - N/A   Mostly Cloudy
2:00 AM 37.4 °F 34.9 °F 26.6 °F 65% 30.48 in 15.0 mi SE 3.5 mph - N/A   Mostly Cloudy
3:00 AM 35.6 °F - 26.6 °F 70% 30.47 in 15.0 mi Calm Calm - N/A   Mostly Cloudy
4:00 AM 35.6 °F 32.8 °F 28.4 °F 75% 30.45 in 15.0 mi North 3.5 mph - N/A   Mostly Cloudy
5:00 AM 35.6 °F 31.7 °F 28.4 °F 75% 30.45 in 15.0 mi NNE 4.6 mph - N/A   Mostly Cloudy
6:00 AM 35.6 °F 31.7 °F 28.4 °F 75% 30.44 in 15.0 mi ENE 4.6 mph - N/A   Mostly Cloudy
7:00 AM 33 °F - 26 °F 67% 30.46 in 15 mi NNE 5.8 mph - -   Scattered Clouds
7:00 AM 33.8 °F 28.6 °F 26.6 °F 75% 30.46 in 15.0 mi NNE 5.8 mph - N/A   Mostly Cloudy
8:00 AM 35.6 °F 30.7 °F 28.4 °F 75% 30.44 in 15.0 mi NNE 5.8 mph - N/A   Mostly Cloudy
9:00 AM 39.2 °F 35.0 °F 26.6 °F 61% 30.44 in 15.0 mi ENE 5.8 mph - N/A   Mostly Cloudy
10:00 AM 39.2 °F 35.0 °F 28.4 °F 65% 30.43 in 15.0 mi ENE 5.8 mph - N/A   Mostly Cloudy
11:00 AM 41.0 °F 37.1 °F 28.4 °F 61% 30.43 in 15.0 mi ENE 5.8 mph - N/A   Mostly Cloudy
12:00 PM 41.0 °F 35.8 °F 30.2 °F 65% 30.40 in 15.0 mi NE 8.1 mph - N/A   Mostly Cloudy
1:00 PM 41 °F - 30 °F 55% 30.38 in 15 mi ENE 5.8 mph - -   Mostly Cloudy
1:00 PM 41.0 °F 37.1 °F 30.2 °F 65% 30.38 in 15.0 mi NE 5.8 mph - N/A   Mostly Cloudy
2:00 PM 42.8 °F 38.0 °F 30.2 °F 61% 30.37 in 15.0 mi East 8.1 mph - N/A   Mostly Cloudy
3:00 PM 42.8 °F 40.1 °F 30.2 °F 61% 30.37 in 15.0 mi ESE 4.6 mph - N/A   Mostly Cloudy
4:00 PM 42.8 °F 39.3 °F 30.2 °F 61% 30.36 in 15.0 mi East 5.8 mph - N/A   Mostly Cloudy
5:00 PM 41.0 °F 38.0 °F 30.2 °F 65% 30.36 in 15.0 mi East 4.6 mph - N/A   Mostly Cloudy
6:00 PM 37.4 °F - 30.2 °F 75% 30.36 in 15.0 mi ENE 2.3 mph - N/A   Mostly Cloudy
7:00 PM 39 °F - 31 °F 63% 30.38 in 15 mi NE 2.3 mph - -   Scattered Clouds
7:00 PM 39.2 °F - 30.2 °F 70% 30.38 in 15.0 mi NE 2.3 mph - N/A   Mostly Cloudy
8:00 PM 39.2 °F - 30.2 °F 70% 30.37 in 15.0 mi Calm Calm - N/A   Mostly Cloudy
9:00 PM 37.4 °F - 30.2 °F 75% 30.37 in 15.0 mi North 2.3 mph - N/A   Mostly Cloudy
10:00 PM 33.8 °F 30.8 °F 28.4 °F 81% 30.37 in 15.0 mi North 3.5 mph - N/A   Mostly Cloudy
11:00 PM 32.0 °F - 26.6 °F 80% 30.37 in 15.0 mi North 2.3 mph - N/A   Partly Cloudy